Simultaneous Nadir Overpasses (SNOs) Predictions

Prediction of SNOs between GOES-16 and NPP Satellite Orbit:

Table of predicted SNOs for the next 14.0 days since TLE Epoch: 5/15/2021
Index Date Time (GOES-16) GOES-16 Lat,Lon NPP Lat,Lon Distance(km) Time Diff (sec)
1 05/15/2021 06:22:52 -0.03, -75.23 -0.08, -74.89 38.59 80
2 05/17/2021 18:28:46 0.02, -75.27 -0.10, -75.67 46.18 80
3 05/18/2021 18:07:22 0.02, -75.28 0.94, -71.14 471.64 80
4 05/20/2021 06:31:52 -0.01, -75.30 0.21, -76.42 127.21 80
5 05/21/2021 06:10:27 -0.01, -75.32 -0.77, -71.89 390.85 80
6 05/22/2021 18:35:05 0.01, -75.35 -0.38, -77.20 210.11 80
7 05/23/2021 18:13:41 0.01, -75.37 0.60, -72.67 308.23 80
8 05/25/2021 06:38:10 -0.01, -75.40 0.55, -77.94 289.88 80
9 05/26/2021 06:16:46 -0.01, -75.42 -0.43, -73.41 228.50 80
10 05/27/2021 18:41:24 0.01, -75.46 -0.70, -78.73 372.09 80
11 05/28/2021 18:20:00 0.01, -75.48 0.28, -74.19 146.58 80
